CST,Max TemperatureF,Mean TemperatureF,Min TemperatureF,Max Dew PointF,MeanDew PointF,Min DewpointF,Max Humidity, Mean Humidity, Min Humidity, Max Sea Level PressureIn, Mean Sea Level PressureIn, Min Sea Level PressureIn, Max VisibilityMiles, Mean VisibilityMiles, Min VisibilityMiles, Max Wind SpeedMPH, Mean Wind SpeedMPH, Max Gust SpeedMPH,PrecipitationIn, CloudCover, Events, WindDirDegrees
2013-1-1,71,66,62,70,67,62,100,99,92,30.12,30.01,29.96,10,9,4,15,10,,0.00,7,Rain,183
2013-1-2,68,58,48,68,56,46,100,92,73,30.16,30.04,29.96,10,10,6,18,10,22,0.01,8,Rain,354
2013-1-3,49,43,37,48,44,35,100,98,87,30.33,30.22,30.15,10,10,10,17,13,23,0.29,6,Rain,5
2013-1-4,56,45,34,42,37,32,92,72,48,30.40,30.36,30.31,10,10,10,12,9,,0.00,1,Rain,8
2013-1-5,53,46,40,43,38,31,84,64,48,30.36,30.30,30.24,10,10,10,13,7,16,0.00,3,Rain,49
2013-1-6,57,52,47,47,43,38,90,73,55,30.26,30.21,30.17,10,10,10,17,8,24,0.00,7,Rain,19
2013-1-7,63,52,41,43,42,39,92,62,46,30.32,30.25,30.22,10,10,10,14,8,,0.00,1,Rain,64
2013-1-8,63,54,45,61,53,42,94,86,77,30.27,30.21,30.18,10,10,10,12,6,,0.00,7,Rain,69
2013-1-9,68,65,62,68,65,61,100,99,93,30.27,30.23,30.18,10,7,2,16,10,18,0.00,8,Rain,85
2013-1-10,68,66,64,68,66,64,100,100,100,30.28,30.21,30.13,10,4,0,21,12,31,0.00,8,Fog-Rain,120
2013-1-11,72,68,64,72,68,64,100,100,100,30.19,30.14,30.06,10,7,0,17,8,25,0.00,7,Fog-Rain,125
2013-1-12,72,68,65,73,67,66,100,100,100,30.14,30.08,30.02,10,5,0,13,9,,0.00,5,Fog,128
2013-1-13,73,70,66,73,69,66,100,100,100,30.06,30.03,29.99,10,7,0,17,10,25,0.00,6,Fog-Rain,141
2013-1-14,73,70,68,73,70,68,100,100,100,30.12,30.07,30.03,10,6,0,14,9,18,0.00,8,Fog,148
2013-1-15,73,70,67,73,70,68,100,100,100,30.07,30.01,29.96,10,9,4,24,11,38,0.04,7,Rain,164
2013-1-16,73,62,50,73,67,50,100,100,100,30.01,29.97,29.92,10,10,3,17,11,20,0.00,7,Rain,183
2013-1-17,48,44,41,48,40,37,100,88,75,30.29,30.14,30.01,10,10,10,24,14,33,0.01,6,Rain,316
2013-1-18,59,48,36,43,39,36,100,80,50,30.49,30.41,30.31,10,10,8,15,9,20,0.00,0,Rain,19
2013-1-19,63,49,35,52,47,34,100,80,62,30.41,30.30,30.24,10,10,4,9,6,,0.00,5,Rain,36
2013-1-20,66,54,41,54,50,41,100,81,60,30.27,30.19,30.13,10,10,10,9,6,,0.00,1,Rain,347
2013-1-21,66,52,39,54,48,40,100,78,53,30.21,30.15,30.11,10,10,10,9,5,,0.00,0,Rain,360
2013-1-22,60,48,37,43,37,32,100,62,41,30.36,30.30,30.19,10,10,6,15,9,21,0.00,0,Rain,14
2013-1-23,62,48,33,55,48,34,100,82,57,30.42,30.35,30.31,10,10,10,10,5,,0.00,0,Rain,180
2013-1-24,69,56,43,63,57,43,100,91,73,30.35,30.29,30.24,10,10,10,15,6,17,0.00,1,,266
2013-1-25,69,56,44,66,57,44,100,97,78,30.32,30.25,30.18,10,10,8,13,4,,0.00,2,Rain,246
2013-1-26,72,62,51,70,64,52,100,99,88,30.26,30.21,30.18,10,10,10,13,6,,0.00,4,Rain,267
2013-1-27,68,60,51,64,58,52,100,95,83,30.33,30.28,30.26,10,9,0,9,5,,0.00,1,Fog-Rain,73
2013-1-28,68,60,53,68,63,54,100,100,100,30.32,30.26,30.19,10,9,1,14,6,,0.00,7,Rain,104
2013-1-29,72,68,64,72,68,64,100,100,100,30.19,30.09,29.94,10,10,7,16,10,22,0.03,7,Rain,135
2013-1-30,73,60,46,73,60,39,100,95,75,30.09,29.89,29.68,10,9,1,25,15,41,0.13,6,Rain,258
2013-1-31,58,48,37,41,34,32,91,59,38,30.32,30.21,30.09,10,10,7,20,11,24,0.00,0,Rain,336